Saint Bonnet de Bellac- Haute Vienne - France
Donnes mto: dimanche, 12/08/2012
Date Horaire Temp. E. Hum. E. P.atmo. Pluie Vent Direction Direction Ensoleilleme Solaire P. de rose Temp au vent Rafales
12/08/2012 00:00 20,2 C 81 % 1014,8 hPa 0,0 mm 6,8 km/h (2 Bft) S 180 0 min 0 W/m 16,8 C 20,2 C 7,2 km/h (2 Bft)
12/08/2012 00:10 20,0 C 81 % 1014,9 hPa 0,0 mm 10,1 km/h (2 Bft) O 270 0 min 0 W/m 16,6 C 20,0 C 12,2 km/h (2 Bft)
12/08/2012 00:20 19,8 C 82 % 1014,9 hPa 0,0 mm 11,2 km/h (2 Bft) O-SO 247 0 min 0 W/m 16,6 C 19,8 C 18,7 km/h (3 Bft)
12/08/2012 00:30 19,6 C 82 % 1015,0 hPa 0,0 mm 6,8 km/h (2 Bft) S-SE 157 0 min 0 W/m 16,4 C 19,6 C 11,2 km/h (2 Bft)
12/08/2012 00:40 19,4 C 82 % 1015,1 hPa 0,0 mm 9,0 km/h (2 Bft) SO 225 0 min 0 W/m 16,2 C 19,4 C 9,0 km/h (2 Bft)
12/08/2012 00:50 19,2 C 82 % 1015,2 hPa 0,0 mm 4,0 km/h (1 Bft) SO 225 0 min 0 W/m 16,0 C 19,2 C 9,0 km/h (2 Bft)
12/08/2012 01:00 19,1 C 83 % 1015,0 hPa 0,0 mm 4,7 km/h (1 Bft) SO 225 0 min 0 W/m 16,1 C 19,1 C 6,5 km/h (2 Bft)
12/08/2012 01:10 19,0 C 84 % 1014,9 hPa 0,0 mm 6,5 km/h (2 Bft) S 180 0 min 0 W/m 16,2 C 19,0 C 9,0 km/h (2 Bft)
12/08/2012 01:20 18,9 C 84 % 1014,9 hPa 0,0 mm 7,9 km/h (2 Bft) S-SO 202 0 min 0 W/m 16,1 C 18,9 C 10,8 km/h (2 Bft)
12/08/2012 01:30 18,9 C 84 % 1014,8 hPa 0,0 mm 5,4 km/h (2 Bft) SO 225 0 min 0 W/m 16,1 C 18,9 C 6,5 km/h (2 Bft)
12/08/2012 01:40 18,9 C 85 % 1014,8 hPa 0,0 mm 7,6 km/h (2 Bft) SO 225 0 min 0 W/m 16,3 C 18,9 C 9,4 km/h (2 Bft)
12/08/2012 01:50 18,9 C 84 % 1014,9 hPa 0,0 mm 3,6 km/h (1 Bft) SO 225 0 min 0 W/m 16,1 C 18,9 C 3,6 km/h (1 Bft)
12/08/2012 02:00 18,9 C 84 % 1014,8 hPa 0,0 mm 3,6 km/h (1 Bft) O-SO 247 0 min 0 W/m 16,1 C 18,9 C 6,5 km/h (2 Bft)
12/08/2012 02:10 18,9 C 84 % 1014,8 hPa 0,0 mm 5,0 km/h (1 Bft) O 270 0 min 0 W/m 16,1 C 18,9 C 8,3 km/h (2 Bft)
12/08/2012 02:20 18,9 C 83 % 1014,8 hPa 0,0 mm 2,2 km/h (1 Bft) S-SO 202 0 min 0 W/m 15,9 C 18,9 C 7,9 km/h (2 Bft)
12/08/2012 02:30 18,9 C 83 % 1014,7 hPa 0,0 mm 2,9 km/h (1 Bft) O 270 0 min 0 W/m 15,9 C 18,9 C 4,3 km/h (1 Bft)
12/08/2012 02:40 18,9 C 83 % 1014,8 hPa 0,0 mm 6,8 km/h (2 Bft) SO 225 0 min 0 W/m 15,9 C 18,9 C 6,8 km/h (2 Bft)
12/08/2012 02:50 18,9 C 83 % 1014,8 hPa 0,0 mm 7,2 km/h (2 Bft) S-SO 202 0 min 0 W/m 15,9 C 18,9 C 10,1 km/h (2 Bft)
12/08/2012 03:02 18,8 C 83 % 1014,6 hPa 0,0 mm 7,6 km/h (2 Bft) SO 225 0 min 0 W/m 15,8 C 18,8 C 12,6 km/h (3 Bft)
12/08/2012 03:10 18,8 C 83 % 1014,7 hPa 0,0 mm 7,9 km/h (2 Bft) SO 225 0 min 0 W/m 15,8 C 18,8 C 11,5 km/h (2 Bft)
12/08/2012 03:20 18,8 C 84 % 1014,8 hPa 0,0 mm 5,4 km/h (2 Bft) S-SO 202 0 min 0 W/m 16,0 C 18,8 C 8,3 km/h (2 Bft)
12/08/2012 03:30 18,7 C 84 % 1014,9 hPa 0,0 mm 5,4 km/h (2 Bft) SO 225 0 min 0 W/m 15,9 C 18,7 C 13,0 km/h (3 Bft)
12/08/2012 03:40 18,6 C 85 % 1014,9 hPa 0,0 mm 5,0 km/h (1 Bft) S-SO 202 0 min 0 W/m 16,0 C 18,6 C 10,8 km/h (2 Bft)
12/08/2012 03:50 18,5 C 85 % 1015,0 hPa 0,0 mm 4,7 km/h (1 Bft) SO 225 0 min 0 W/m 15,9 C 18,5 C 8,6 km/h (2 Bft)
12/08/2012 04:00 18,4 C 84 % 1015,0 hPa 0,0 mm 5,0 km/h (1 Bft) O-SO 247 0 min 0 W/m 15,6 C 18,4 C 9,4 km/h (2 Bft)
12/08/2012 04:10 18,2 C 83 % 1014,9 hPa 0,0 mm 6,5 km/h (2 Bft) O-SO 247 0 min 0 W/m 15,3 C 18,2 C 10,1 km/h (2 Bft)
12/08/2012 04:20 18,0 C 83 % 1015,1 hPa 0,0 mm 1,1 km/h (1 Bft) O-SO 247 0 min 0 W/m 15,1 C 18,0 C 1,4 km/h (1 Bft)
12/08/2012 04:30 17,9 C 84 % 1015,1 hPa 0,0 mm 6,8 km/h (2 Bft) SO 225 0 min 0 W/m 15,2 C 17,9 C 9,7 km/h (2 Bft)
12/08/2012 04:40 17,8 C 84 % 1015,1 hPa 0,0 mm 2,5 km/h (1 Bft) SO 225 0 min 0 W/m 15,1 C 17,8 C 4,0 km/h (1 Bft)
12/08/2012 04:50 17,8 C 83 % 1015,2 hPa 0,0 mm 5,0 km/h (1 Bft) O-SO 247 0 min 0 W/m 14,9 C 17,8 C 14,4 km/h (3 Bft)
12/08/2012 05:00 17,6 C 83 % 1015,1 hPa 0,0 mm 5,0 km/h (1 Bft) O-SO 247 0 min 0 W/m 14,7 C 17,6 C 7,2 km/h (2 Bft)
12/08/2012 05:10 17,5 C 83 % 1015,2 hPa 0,0 mm 0,4 km/h (0 Bft) SO 225 0 min 0 W/m 14,6 C 17,5 C 0,4 km/h (0 Bft)
12/08/2012 05:20 17,4 C 84 % 1015,3 hPa 0,0 mm 6,1 km/h (2 Bft) S-SO 202 0 min 0 W/m 14,7 C 17,4 C 9,0 km/h (2 Bft)
12/08/2012 05:30 17,4 C 84 % 1015,4 hPa 0,0 mm 7,2 km/h (2 Bft) S-SO 202 0 min 0 W/m 14,7 C 17,4 C 14,4 km/h (3 Bft)
12/08/2012 05:40 17,4 C 85 % 1015,4 hPa 0,0 mm 9,0 km/h (2 Bft) O-SO 247 0 min 0 W/m 14,8 C 17,4 C 12,6 km/h (3 Bft)
12/08/2012 05:50 17,4 C 85 % 1015,5 hPa 0,0 mm 0,7 km/h (0 Bft) O-SO 247 0 min 0 W/m 14,8 C 17,4 C 0,7 km/h (0 Bft)
12/08/2012 06:00 17,3 C 85 % 1015,6 hPa 0,0 mm 3,6 km/h (1 Bft) S-SO 202 0 min 0 W/m 14,8 C 17,3 C 3,6 km/h (1 Bft)
12/08/2012 06:10 17,2 C 85 % 1015,5 hPa 0,0 mm 4,3 km/h (1 Bft) SO 225 0 min 0 W/m 14,7 C 17,2 C 6,5 km/h (2 Bft)
12/08/2012 06:20 17,2 C 85 % 1015,5 hPa 0,0 mm 1,4 km/h (1 Bft) SO 225 0 min 0 W/m 14,7 C 17,2 C 1,4 km/h (1 Bft)
12/08/2012 06:30 17,1 C 85 % 1015,6 hPa 0,0 mm 1,8 km/h (1 Bft) O-NO 292 0 min 0 W/m 14,6 C 17,1 C 4,0 km/h (1 Bft)
12/08/2012 06:40 17,0 C 86 % 1015,6 hPa 0,0 mm 2,2 km/h (1 Bft) SO 225 0 min 0 W/m 14,6 C 17,0 C 2,9 km/h (1 Bft)
12/08/2012 06:50 17,0 C 86 % 1015,7 hPa 0,0 mm 2,9 km/h (1 Bft) SO 225 0 min 0 W/m 14,6 C 17,0 C 5,8 km/h (2 Bft)
12/08/2012 07:00 16,9 C 86 % 1015,7 hPa 0,0 mm 3,6 km/h (1 Bft) S-SO 202 0 min 0 W/m 14,5 C 16,9 C 4,0 km/h (1 Bft)
12/08/2012 07:10 16,9 C 86 % 1015,7 hPa 0,0 mm 2,2 km/h (1 Bft) S-SO 202 0 min 0 W/m 14,5 C 16,9 C 2,2 km/h (1 Bft)
12/08/2012 07:20 16,9 C 87 % 1015,7 hPa 0,0 mm 4,0 km/h (1 Bft) SO 225 0 min 0 W/m 14,7 C 16,9 C 10,1 km/h (2 Bft)
12/08/2012 07:30 16,9 C 87 % 1015,7 hPa 0,0 mm 3,6 km/h (1 Bft) SO 225 0 min 0 W/m 14,7 C 16,9 C 6,1 km/h (2 Bft)
12/08/2012 07:40 16,9 C 88 % 1015,7 hPa 0,0 mm 1,4 km/h (1 Bft) SO 225 0 min 0 W/m 14,9 C 16,9 C 4,0 km/h (1 Bft)
12/08/2012 07:50 17,1 C 88 % 1015,7 hPa 0,0 mm 7,6 km/h (2 Bft) SO 225 0 min 0 W/m 15,1 C 17,1 C 8,3 km/h (2 Bft)
12/08/2012 08:00 17,1 C 88 % 1015,7 hPa 0,0 mm 3,6 km/h (1 Bft) O-SO 247 0 min 0 W/m 15,1 C 17,1 C 7,6 km/h (2 Bft)
12/08/2012 08:10 17,2 C 87 % 1015,7 hPa 0,0 mm 0,7 km/h (0 Bft) S-SO 202 0 min 0 W/m 15,0 C 17,2 C 3,6 km/h (1 Bft)
12/08/2012 08:20 17,4 C 87 % 1015,7 hPa 0,0 mm 0,7 km/h (0 Bft) O 270 0 min 0 W/m 15,2 C 17,4 C 0,7 km/h (0 Bft)
12/08/2012 08:30 17,5 C 87 % 1015,7 hPa 0,0 mm 1,1 km/h (1 Bft) O-SO 247 0 min 0 W/m 15,3 C 17,5 C 6,5 km/h (2 Bft)
12/08/2012 08:40 17,6 C 86 % 1015,7 hPa 0,0 mm 0,7 km/h (0 Bft) SO 225 0 min 0 W/m 15,2 C 17,6 C 3,2 km/h (1 Bft)
12/08/2012 08:50 17,8 C 86 % 1015,6 hPa 0,0 mm 2,5 km/h (1 Bft) SO 225 0 min 0 W/m 15,4 C 17,8 C 4,0 km/h (1 Bft)
12/08/2012 09:00 18,1 C 86 % 1015,7 hPa 0,0 mm 2,5 km/h (1 Bft) S-SO 202 0 min 0 W/m 15,7 C 18,1 C 4,0 km/h (1 Bft)
12/08/2012 09:10 18,3 C 85 % 1015,8 hPa 0,0 mm 1,4 km/h (1 Bft) O 270 0 min 0 W/m 15,7 C 18,3 C 1,4 km/h (1 Bft)
12/08/2012 09:20 18,4 C 84 % 1015,8 hPa 0,0 mm 0,7 km/h (0 Bft) O-SO 247 0 min 0 W/m 15,6 C 18,4 C 0,7 km/h (0 Bft)
12/08/2012 09:30 18,6 C 84 % 1015,9 hPa 0,0 mm 1,4 km/h (1 Bft) SO 225 0 min 0 W/m 15,8 C 18,6 C 4,3 km/h (1 Bft)
12/08/2012 09:40 18,8 C 83 % 1016,0 hPa 0,0 mm 3,2 km/h (1 Bft) S-SO 202 0 min 0 W/m 15,8 C 18,8 C 6,1 km/h (2 Bft)
12/08/2012 09:50 18,9 C 82 % 1016,0 hPa 0,0 mm 5,8 km/h (2 Bft) SO 225 0 min 0 W/m 15,8 C 18,9 C 8,6 km/h (2 Bft)
12/08/2012 10:00 19,2 C 82 % 1016,0 hPa 0,0 mm 2,2 km/h (1 Bft) O 270 0 min 0 W/m 16,0 C 19,2 C 4,3 km/h (1 Bft)
12/08/2012 10:10 19,4 C 81 % 1016,2 hPa 0,0 mm 1,8 km/h (1 Bft) S-SO 202 0 min 0 W/m 16,1 C 19,4 C 6,1 km/h (2 Bft)
12/08/2012 10:20 19,6 C 80 % 1016,1 hPa 0,0 mm 1,4 km/h (1 Bft) S-SO 202 0 min 0 W/m 16,1 C 19,6 C 1,4 km/h (1 Bft)
12/08/2012 10:30 20,2 C 78 % 1016,0 hPa 0,0 mm 2,5 km/h (1 Bft) O-SO 247 0 min 0 W/m 16,2 C 20,2 C 2,5 km/h (1 Bft)
12/08/2012 10:40 20,6 C 76 % 1016,0 hPa 0,0 mm 7,9 km/h (2 Bft) S-SO 202 0 min 0 W/m 16,2 C 20,6 C 10,4 km/h (2 Bft)
12/08/2012 10:50 20,8 C 74 % 1015,9 hPa 0,0 mm 5,8 km/h (2 Bft) S-SO 202 0 min 0 W/m 16,0 C 20,8 C 9,0 km/h (2 Bft)
12/08/2012 11:00 20,8 C 74 % 1016,0 hPa 0,0 mm 3,2 km/h (1 Bft) S-SO 202 0 min 0 W/m 16,0 C 20,8 C 4,3 km/h (1 Bft)
12/08/2012 11:10 20,5 C 74 % 1016,0 hPa 0,0 mm 0,7 km/h (0 Bft) O-SO 247 0 min 0 W/m 15,7 C 20,5 C 2,9 km/h (1 Bft)
12/08/2012 11:20 20,6 C 74 % 1016,1 hPa 0,0 mm 0,0 km/h (0 Bft) O 270 0 min 0 W/m 15,8 C 20,6 C 0,0 km/h (0 Bft)
12/08/2012 11:30 20,7 C 74 % 1016,1 hPa 0,0 mm 5,8 km/h (2 Bft) SO 225 0 min 0 W/m 15,9 C 20,7 C 9,7 km/h (2 Bft)
12/08/2012 11:40 20,8 C 74 % 1016,1 hPa 0,0 mm 5,8 km/h (2 Bft) O-SO 247 0 min 0 W/m 16,0 C 20,8 C 10,1 km/h (2 Bft)
12/08/2012 11:50 21,4 C 73 % 1015,9 hPa 0,0 mm 2,5 km/h (1 Bft) O-SO 247 0 min 0 W/m 16,4 C 21,4 C 2,9 km/h (1 Bft)
12/08/2012 12:00 21,9 C 71 % 1015,9 hPa 0,0 mm 2,5 km/h (1 Bft) S-SO 202 0 min 0 W/m 16,4 C 21,9 C 4,0 km/h (1 Bft)
12/08/2012 12:10 22,2 C 69 % 1015,8 hPa 0,0 mm 2,9 km/h (1 Bft) S-SO 202 0 min 0 W/m 16,2 C 22,2 C 9,7 km/h (2 Bft)
12/08/2012 12:20 22,1 C 70 % 1015,8 hPa 0,0 mm 1,8 km/h (1 Bft) S-SO 202 0 min 0 W/m 16,4 C 22,1 C 4,3 km/h (1 Bft)
12/08/2012 12:30 22,7 C 68 % 1015,6 hPa 0,0 mm 3,6 km/h (1 Bft) O-SO 247 0 min 0 W/m 16,5 C 22,7 C 4,3 km/h (1 Bft)
12/08/2012 12:40 23,1 C 65 % 1015,8 hPa 0,0 mm 5,4 km/h (2 Bft) SO 225 0 min 0 W/m 16,2 C 23,1 C 8,3 km/h (2 Bft)
12/08/2012 12:50 23,2 C 66 % 1015,8 hPa 0,0 mm 1,1 km/h (1 Bft) O-SO 247 0 min 0 W/m 16,5 C 23,2 C 1,1 km/h (1 Bft)
12/08/2012 13:00 22,9 C 66 % 1015,7 hPa 0,0 mm 4,0 km/h (1 Bft) SO 225 0 min 0 W/m 16,2 C 22,9 C 7,6 km/h (2 Bft)
12/08/2012 13:10 22,8 C 67 % 1015,7 hPa 0,0 mm 2,9 km/h (1 Bft) O-SO 247 0 min 0 W/m 16,3 C 22,8 C 7,2 km/h (2 Bft)
12/08/2012 13:20 23,1 C 66 % 1015,7 hPa 0,0 mm 2,5 km/h (1 Bft) O-NO 292 0 min 0 W/m 16,4 C 23,1 C 6,1 km/h (2 Bft)
12/08/2012 13:30 23,4 C 65 % 1015,7 hPa 0,0 mm 0,7 km/h (0 Bft) O-SO 247 0 min 0 W/m 16,4 C 23,4 C 0,7 km/h (0 Bft)
12/08/2012 13:40 23,6 C 64 % 1015,7 hPa 0,0 mm 0,7 km/h (0 Bft) SO 225 0 min 0 W/m 16,4 C 23,6 C 3,2 km/h (1 Bft)
12/08/2012 13:50 23,5 C 63 % 1015,6 hPa 0,0 mm 2,5 km/h (1 Bft) O-SO 247 0 min 0 W/m 16,0 C 23,5 C 3,6 km/h (1 Bft)
12/08/2012 14:00 23,6 C 64 % 1015,5 hPa 0,0 mm 1,1 km/h (1 Bft) S-SO 202 0 min 0 W/m 16,4 C 23,6 C 1,1 km/h (1 Bft)
12/08/2012 14:10 24,3 C 63 % 1015,4 hPa 0,0 mm 1,1 km/h (1 Bft) O-NO 292 0 min 0 W/m 16,8 C 24,3 C 2,9 km/h (1 Bft)
12/08/2012 14:20 25,2 C 60 % 1015,2 hPa 0,0 mm 2,5 km/h (1 Bft) O 270 0 min 0 W/m 16,9 C 25,2 C 2,5 km/h (1 Bft)
12/08/2012 14:30 25,9 C 57 % 1015,1 hPa 0,0 mm 3,2 km/h (1 Bft) O 270 0 min 0 W/m 16,7 C 25,9 C 5,0 km/h (1 Bft)
12/08/2012 14:40 26,5 C 54 % 1015,2 hPa 0,0 mm 2,5 km/h (1 Bft) O-SO 247 0 min 0 W/m 16,4 C 26,5 C 4,3 km/h (1 Bft)
12/08/2012 14:50 26,4 C 56 % 1015,0 hPa 0,0 mm 5,4 km/h (2 Bft) SO 225 0 min 0 W/m 16,9 C 26,4 C 8,6 km/h (2 Bft)
12/08/2012 15:00 26,4 C 55 % 1015,2 hPa 0,0 mm 3,6 km/h (1 Bft) O-SO 247 0 min 0 W/m 16,6 C 26,4 C 6,8 km/h (2 Bft)
12/08/2012 15:10 26,5 C 54 % 1015,1 hPa 0,0 mm 2,5 km/h (1 Bft) O-SO 247 0 min 0 W/m 16,4 C 26,5 C 3,2 km/h (1 Bft)
12/08/2012 15:20 26,6 C 54 % 1015,0 hPa 0,0 mm 7,2 km/h (2 Bft) S-SO 202 0 min 0 W/m 16,5 C 26,6 C 14,0 km/h (3 Bft)
12/08/2012 15:30 26,3 C 54 % 1015,1 hPa 0,0 mm 7,2 km/h (2 Bft) SO 225 0 min 0 W/m 16,2 C 26,3 C 9,7 km/h (2 Bft)
12/08/2012 15:40 26,3 C 55 % 1014,8 hPa 0,0 mm 3,6 km/h (1 Bft) S-SO 202 0 min 0 W/m 16,5 C 26,3 C 7,6 km/h (2 Bft)
12/08/2012 15:50 26,3 C 55 % 1014,9 hPa 0,0 mm 5,8 km/h (2 Bft) SO 225 0 min 0 W/m 16,5 C 26,3 C 10,1 km/h (2 Bft)
12/08/2012 16:00 25,9 C 56 % 1014,9 hPa 0,0 mm 8,3 km/h (2 Bft) S 180 0 min 0 W/m 16,4 C 25,9 C 8,3 km/h (2 Bft)
12/08/2012 16:10 25,6 C 57 % 1014,9 hPa 0,0 mm 3,6 km/h (1 Bft) O-SO 247 0 min 0 W/m 16,4 C 25,6 C 10,1 km/h (2 Bft)
12/08/2012 16:20 25,5 C 58 % 1014,9 hPa 0,0 mm 0,7 km/h (0 Bft) NO 315 0 min 0 W/m 16,6 C 25,5 C 4,3 km/h (1 Bft)
12/08/2012 16:30 26,1 C 57 % 1014,9 hPa 0,0 mm 9,7 km/h (2 Bft) S-SO 202 0 min 0 W/m 16,9 C 26,1 C 16,2 km/h (3 Bft)
12/08/2012 16:40 26,2 C 54 % 1015,0 hPa 0,0 mm 5,8 km/h (2 Bft) O-SO 247 0 min 0 W/m 16,1 C 26,2 C 9,7 km/h (2 Bft)
12/08/2012 16:50 25,5 C 55 % 1014,9 hPa 0,0 mm 3,2 km/h (1 Bft) O-SO 247 0 min 0 W/m 15,8 C 25,5 C 6,8 km/h (2 Bft)
12/08/2012 17:00 25,1 C 57 % 1014,9 hPa 0,0 mm 4,7 km/h (1 Bft) O-SO 247 0 min 0 W/m 16,0 C 25,1 C 11,9 km/h (2 Bft)
12/08/2012 17:10 24,8 C 57 % 1015,1 hPa 0,0 mm 7,2 km/h (2 Bft) SO 225 0 min 0 W/m 15,7 C 24,8 C 10,4 km/h (2 Bft)
12/08/2012 17:20 24,2 C 60 % 1015,2 hPa 0,0 mm 5,0 km/h (1 Bft) SO 225 0 min 0 W/m 15,9 C 24,2 C 5,0 km/h (1 Bft)
12/08/2012 17:30 23,6 C 63 % 1015,1 hPa 0,0 mm 4,3 km/h (1 Bft) S-SO 202 0 min 0 W/m 16,1 C 23,6 C 7,6 km/h (2 Bft)
12/08/2012 17:40 23,4 C 63 % 1015,0 hPa 0,0 mm 2,5 km/h (1 Bft) O-SO 247 0 min 0 W/m 15,9 C 23,4 C 4,3 km/h (1 Bft)
12/08/2012 18:00 24,0 C 64 % 1014,8 hPa 0,0 mm 1,1 km/h (1 Bft) O-SO 247 0 min 0 W/m 16,8 C 24,0 C 6,8 km/h (2 Bft)
12/08/2012 18:10 24,4 C 61 % 1014,7 hPa 0,0 mm 1,4 km/h (1 Bft) SO 225 0 min 0 W/m 16,4 C 24,4 C 6,5 km/h (2 Bft)
12/08/2012 18:20 24,4 C 60 % 1014,7 hPa 0,0 mm 0,7 km/h (0 Bft) SO 225 0 min 0 W/m 16,1 C 24,4 C 3,2 km/h (1 Bft)
12/08/2012 18:30 24,3 C 60 % 1014,6 hPa 0,0 mm 2,9 km/h (1 Bft) S 180 0 min 0 W/m 16,0 C 24,3 C 6,8 km/h (2 Bft)
12/08/2012 18:40 24,1 C 61 % 1014,5 hPa 0,0 mm 3,6 km/h (1 Bft) S-SO 202 0 min 0 W/m 16,1 C 24,1 C 7,2 km/h (2 Bft)
12/08/2012 18:50 24,4 C 61 % 1014,4 hPa 0,0 mm 1,4 km/h (1 Bft) S-SO 202 0 min 0 W/m 16,4 C 24,4 C 4,3 km/h (1 Bft)
12/08/2012 19:00 24,6 C 60 % 1014,4 hPa 0,0 mm 1,1 km/h (1 Bft) SO 225 0 min 0 W/m 16,3 C 24,6 C 6,1 km/h (2 Bft)
12/08/2012 19:10 24,9 C 58 % 1014,4 hPa 0,0 mm 6,1 km/h (2 Bft) SO 225 0 min 0 W/m 16,1 C 24,9 C 8,6 km/h (2 Bft)
12/08/2012 19:20 24,8 C 58 % 1014,5 hPa 0,0 mm 2,5 km/h (1 Bft) SO 225 0 min 0 W/m 16,0 C 24,8 C 2,5 km/h (1 Bft)
12/08/2012 19:30 24,4 C 59 % 1014,4 hPa 0,0 mm 3,2 km/h (1 Bft) SO 225 0 min 0 W/m 15,9 C 24,4 C 4,3 km/h (1 Bft)
12/08/2012 19:40 24,2 C 60 % 1014,4 hPa 0,0 mm 1,8 km/h (1 Bft) SO 225 0 min 0 W/m 15,9 C 24,2 C 1,8 km/h (1 Bft)
12/08/2012 19:50 24,3 C 59 % 1014,3 hPa 0,0 mm 0,4 km/h (0 Bft) O-SO 247 0 min 0 W/m 15,8 C 24,3 C 0,4 km/h (0 Bft)
12/08/2012 20:00 24,8 C 58 % 1014,4 hPa 0,0 mm 3,6 km/h (1 Bft) O-NO 292 0 min 0 W/m 16,0 C 24,8 C 4,3 km/h (1 Bft)
12/08/2012 20:10 24,9 C 56 % 1014,3 hPa 0,0 mm 1,4 km/h (1 Bft) O-SO 247 0 min 0 W/m 15,5 C 24,9 C 3,6 km/h (1 Bft)
12/08/2012 20:20 24,7 C 56 % 1014,3 hPa 0,0 mm 2,2 km/h (1 Bft) O-SO 247 0 min 0 W/m 15,3 C 24,7 C 8,3 km/h (2 Bft)
12/08/2012 20:30 24,3 C 57 % 1014,4 hPa 0,0 mm 0,4 km/h (0 Bft) N 360 0 min 0 W/m 15,2 C 24,3 C 4,3 km/h (1 Bft)
12/08/2012 20:40 23,9 C 58 % 1014,4 hPa 0,0 mm 0,7 km/h (0 Bft) O 270 0 min 0 W/m 15,1 C 23,9 C 4,0 km/h (1 Bft)
12/08/2012 20:50 23,4 C 59 % 1014,4 hPa 0,0 mm 0,0 km/h (0 Bft) O-SO 247 0 min 0 W/m 14,9 C 23,4 C 0,0 km/h (0 Bft)
12/08/2012 21:00 22,8 C 60 % 1014,5 hPa 0,0 mm 0,0 km/h (0 Bft) O-SO 247 0 min 0 W/m 14,6 C 22,8 C 0,0 km/h (0 Bft)
12/08/2012 21:10 22,3 C 62 % 1014,5 hPa 0,0 mm 0,0 km/h (0 Bft) O 270 0 min 0 W/m 14,7 C 22,3 C 0,0 km/h (0 Bft)
12/08/2012 21:20 21,8 C 63 % 1014,7 hPa 0,0 mm 0,0 km/h (0 Bft) O 270 0 min 0 W/m 14,4 C 21,8 C 0,0 km/h (0 Bft)
12/08/2012 21:30 21,3 C 65 % 1014,7 hPa 0,0 mm 0,0 km/h (0 Bft) SO 225 0 min 0 W/m 14,4 C 21,3 C 0,0 km/h (0 Bft)
12/08/2012 21:40 20,8 C 66 % 1014,8 hPa 0,0 mm 0,0 km/h (0 Bft) S-SO 202 0 min 0 W/m 14,2 C 20,8 C 0,0 km/h (0 Bft)
12/08/2012 21:50 20,4 C 67 % 1014,8 hPa 0,0 mm 0,0 km/h (0 Bft) O 270 0 min 0 W/m 14,1 C 20,4 C 0,0 km/h (0 Bft)
12/08/2012 22:00 20,1 C 68 % 1014,9 hPa 0,0 mm 0,0 km/h (0 Bft) O 270 0 min 0 W/m 14,0 C 20,1 C 0,0 km/h (0 Bft)
12/08/2012 22:10 19,8 C 70 % 1015,0 hPa 0,0 mm 0,0 km/h (0 Bft) S-SO 202 0 min 0 W/m 14,2 C 19,8 C 0,0 km/h (0 Bft)
12/08/2012 22:20 19,4 C 71 % 1015,1 hPa 0,0 mm 0,0 km/h (0 Bft) S-SO 202 0 min 0 W/m 14,0 C 19,4 C 0,0 km/h (0 Bft)
12/08/2012 22:30 19,2 C 72 % 1015,2 hPa 0,0 mm 0,0 km/h (0 Bft) S-SO 202 0 min 0 W/m 14,0 C 19,2 C 0,0 km/h (0 Bft)
12/08/2012 22:40 18,9 C 73 % 1015,2 hPa 0,0 mm 0,0 km/h (0 Bft) S-SO 202 0 min 0 W/m 13,9 C 18,9 C 0,0 km/h (0 Bft)
12/08/2012 22:50 18,6 C 74 % 1015,2 hPa 0,0 mm 0,0 km/h (0 Bft) S-SO 202 0 min 0 W/m 13,9 C 18,6 C 0,0 km/h (0 Bft)
12/08/2012 23:00 18,4 C 74 % 1015,3 hPa 0,0 mm 0,0 km/h (0 Bft) SO 225 0 min 0 W/m 13,7 C 18,4 C 0,0 km/h (0 Bft)
12/08/2012 23:10 18,2 C 75 % 1015,3 hPa 0,0 mm 0,0 km/h (0 Bft) S-SO 202 0 min 0 W/m 13,7 C 18,2 C 0,0 km/h (0 Bft)
12/08/2012 23:20 18,0 C 76 % 1015,3 hPa 0,0 mm 0,0 km/h (0 Bft) S-SO 202 0 min 0 W/m 13,7 C 18,0 C 0,0 km/h (0 Bft)
12/08/2012 23:30 17,8 C 77 % 1015,3 hPa 0,0 mm 0,0 km/h (0 Bft) S-SO 202 0 min 0 W/m 13,7 C 17,8 C 0,0 km/h (0 Bft)
12/08/2012 23:40 17,7 C 77 % 1015,4 hPa 0,0 mm 0,0 km/h (0 Bft) S-SO 202 0 min 0 W/m 13,6 C 17,7 C 0,0 km/h (0 Bft)
12/08/2012 23:50 17,5 C 77 % 1015,4 hPa 0,0 mm 0,0 km/h (0 Bft) S-SO 202 0 min 0 W/m 13,4 C 17,5 C 0,0 km/h (0 Bft)
_ Min-Heure 07:40 16:40 20:20 - 23:50 - - - - 23:50 07:40 23:50
Minimum _ 16,9 C 54 % 1014,3 hPa - 0,0 km/h (0 Bft) - - - - 13,4 C 16,9 C 0,0 km/h (0 Bft)
_ Max-Heure 15:20 08:00 10:10 23:50 00:20 - - 23:50 23:50 16:30 15:20 00:20
Maximum _ 26,6 C 88 % 1016,2 hPa 0,0 mm 11,2 km/h
O-SO (2 Bft)
- - 0 min 0 W/m 16,9 C 26,6 C 18,7 km/h
O-SO (3 Bft)
Moyenne _ 20,9 C 73 % 1015,2 hPa #0,0 mm 3,3 km/h (1 Bft) SO - #0 min. 0 W/m 15,6 C 20,9 C 5,6 km/h (2 Bft)
Saint Bonnet de Bellac- Haute Vienne - France